N717SM KEWR-EINN

Flight info

Callsign N717SM
Flight time N/A
Altitude 41000
Route MERIT DCT HFD DCT PUT DCT EBONY DCT NEEKO/M086F400 DCT 54N050W 55N040W 55N030W 54N020W DCT MALOT DCT GISTI/N0494F450 DCT UNBEG UNBEG2E
Aircraft C750/M-SBDE3FGHRWXY/S

Departure

Time N/A
Airport Newark Liberty International Airport (KEWR)

Arrival

Time 2026-04-29 21:50
Airport Shannon Airport (EINN)
Time Latitude Longitude Altitude Speed Heading
2026-04-29 20:23 54.69356 -25.87933 41200 ft 540 kts 102°
2026-04-29 20:24 54.68358 -25.77137 41205 ft 539 kts 102°
2026-04-29 20:24 54.67164 -25.64360 41199 ft 538 kts 103°
2026-04-29 20:25 54.65966 -25.51695 41196 ft 537 kts 103°
2026-04-29 20:25 54.64751 -25.38991 41191 ft 536 kts 103°
2026-04-29 20:26 54.63516 -25.26231 41189 ft 535 kts 103°
2026-04-29 20:26 54.62279 -25.13590 41189 ft 534 kts 103°
2026-04-29 20:27 54.61243 -25.03111 41188 ft 532 kts 103°
2026-04-29 20:27 54.59783 -24.88507 41179 ft 531 kts 103°
2026-04-29 20:28 54.58516 -24.75988 41183 ft 530 kts 103°
2026-04-29 20:28 54.57239 -24.63496 41174 ft 529 kts 103°
2026-04-29 20:29 54.55951 -24.51031 41177 ft 528 kts 103°
2026-04-29 20:29 54.54652 -24.38598 41168 ft 527 kts 103°
2026-04-29 20:30 54.53341 -24.26179 41174 ft 526 kts 103°
2026-04-29 20:30 54.52021 -24.13797 41172 ft 526 kts 103°
2026-04-29 20:31 54.50689 -24.01429 41179 ft 525 kts 103°
2026-04-29 20:31 54.49346 -23.89086 41177 ft 525 kts 104°
2026-04-29 20:32 54.47992 -23.76764 41183 ft 523 kts 104°
2026-04-29 20:32 54.46628 -23.64478 41176 ft 523 kts 104°
2026-04-29 20:33 54.45253 -23.52205 41180 ft 523 kts 104°
2026-04-29 20:33 54.43867 -23.39959 41185 ft 522 kts 104°
2026-04-29 20:34 54.42470 -23.27731 41185 ft 521 kts 104°
2026-04-29 20:34 54.41063 -23.15533 41186 ft 521 kts 104°
2026-04-29 20:35 54.39646 -23.03357 41188 ft 520 kts 104°
2026-04-29 20:35 54.38217 -22.91194 41194 ft 519 kts 104°
2026-04-29 20:36 54.36777 -22.79058 41190 ft 519 kts 104°
2026-04-29 20:36 54.35327 -22.66943 41198 ft 519 kts 104°
2026-04-29 20:37 54.33865 -22.54837 41192 ft 518 kts 104°
2026-04-29 20:37 54.32392 -22.42750 41203 ft 518 kts 104°
2026-04-29 20:38 54.30908 -22.30676 41201 ft 518 kts 104°
2026-04-29 20:38 54.29412 -22.18613 41201 ft 518 kts 104°
2026-04-29 20:39 54.27905 -22.06567 41196 ft 518 kts 104°
2026-04-29 20:39 54.26386 -21.94531 41208 ft 517 kts 104°
2026-04-29 20:40 54.24864 -21.82577 41203 ft 518 kts 104°
2026-04-29 20:40 54.23322 -21.70563 41215 ft 518 kts 104°
2026-04-29 20:41 54.21767 -21.58553 41215 ft 518 kts 104°
2026-04-29 20:41 54.20197 -21.46526 41214 ft 520 kts 104°
2026-04-29 20:42 54.18614 -21.34503 41213 ft 519 kts 104°
2026-04-29 20:42 54.17020 -21.22495 41214 ft 518 kts 104°
2026-04-29 20:43 54.15413 -21.10491 41212 ft 519 kts 104°
2026-04-29 20:43 54.13797 -20.98514 41215 ft 518 kts 104°
2026-04-29 20:44 54.12171 -20.86563 41225 ft 518 kts 104°
2026-04-29 20:44 54.10531 -20.74606 41220 ft 517 kts 104°
2026-04-29 20:45 54.08884 -20.62694 41223 ft 516 kts 104°
2026-04-29 20:45 54.07226 -20.50795 41220 ft 516 kts 104°
2026-04-29 20:46 54.05559 -20.38926 41225 ft 515 kts 104°
2026-04-29 20:46 54.03882 -20.27078 41224 ft 515 kts 104°
2026-04-29 20:47 54.02196 -20.15253 41231 ft 514 kts 105°
2026-04-29 20:47 54.00499 -20.03445 41230 ft 514 kts 105°
2026-04-29 20:48 53.98571 -19.91779 41234 ft 513 kts 108°
2026-04-29 20:48 53.96510 -19.80191 41237 ft 512 kts 107°
2026-04-29 20:49 53.94473 -19.68617 41236 ft 512 kts 108°
2026-04-29 20:49 53.92399 -19.57058 41245 ft 512 kts 108°
2026-04-29 20:50 53.90348 -19.45595 41248 ft 511 kts 108°
2026-04-29 20:50 53.88263 -19.34082 41248 ft 511 kts 108°
2026-04-29 20:51 53.86174 -19.22581 41243 ft 511 kts 108°
2026-04-29 20:51 53.84072 -19.11103 41242 ft 510 kts 108°
2026-04-29 20:52 53.81963 -18.99646 41243 ft 510 kts 108°
2026-04-29 20:52 53.79844 -18.88210 41243 ft 509 kts 108°
2026-04-29 20:53 53.77715 -18.76790 41241 ft 509 kts 108°
2026-04-29 20:53 53.75577 -18.65388 41243 ft 509 kts 108°
2026-04-29 20:54 53.72351 -18.48319 41247 ft 508 kts 108°
2026-04-29 20:55 53.70190 -18.36967 41249 ft 508 kts 108°
2026-04-29 20:55 53.68019 -18.25634 41251 ft 507 kts 108°
2026-04-29 20:56 53.65841 -18.14329 41254 ft 506 kts 108°
2026-04-29 20:56 53.63653 -18.03044 41260 ft 506 kts 108°
2026-04-29 20:57 53.61463 -17.91808 41259 ft 505 kts 108°
2026-04-29 20:57 53.59258 -17.80568 41256 ft 505 kts 108°
2026-04-29 20:58 53.57050 -17.69372 41253 ft 504 kts 108°
2026-04-29 20:58 53.54832 -17.58194 41258 ft 504 kts 108°
2026-04-29 20:59 53.52605 -17.47033 41257 ft 503 kts 108°
2026-04-29 20:59 53.50369 -17.35887 41258 ft 503 kts 108°
2026-04-29 21:00 53.48121 -17.24751 41260 ft 504 kts 108°
2026-04-29 21:00 53.45863 -17.13623 41245 ft 503 kts 108°
2026-04-29 21:01 53.43596 -17.02514 41245 ft 503 kts 108°
2026-04-29 21:01 53.41319 -16.91421 41252 ft 504 kts 108°
2026-04-29 21:02 53.39029 -16.80326 41253 ft 503 kts 108°
2026-04-29 21:02 53.36734 -16.69267 41251 ft 503 kts 108°
2026-04-29 21:03 53.34427 -16.58214 41254 ft 503 kts 108°
2026-04-29 21:03 53.32111 -16.47176 41250 ft 502 kts 108°
2026-04-29 21:04 53.29804 -16.36242 41251 ft 502 kts 108°
2026-04-29 21:04 53.27473 -16.25253 41253 ft 502 kts 108°
2026-04-29 21:05 53.25134 -16.14288 41250 ft 501 kts 108°
2026-04-29 21:05 53.22786 -16.03338 41250 ft 501 kts 109°
2026-04-29 21:06 53.20430 -15.92410 41250 ft 500 kts 109°
2026-04-29 21:06 53.18066 -15.81502 41247 ft 500 kts 109°
2026-04-29 21:07 53.15693 -15.70611 41241 ft 500 kts 109°
2026-04-29 21:07 53.13713 -15.61567 41246 ft 500 kts 109°
2026-04-29 21:08 53.10918 -15.48870 41243 ft 500 kts 109°
2026-04-29 21:08 53.08518 -15.38027 41239 ft 500 kts 109°
2026-04-29 21:09 53.06515 -15.29024 41242 ft 500 kts 109°
2026-04-29 21:09 53.04094 -15.18191 41236 ft 499 kts 109°
2026-04-29 21:10 53.01664 -15.07373 41237 ft 500 kts 109°
2026-04-29 21:10 53.00055 -14.96219 41211 ft 497 kts 95°
2026-04-29 21:11 53.00071 -14.84734 41234 ft 499 kts 89°
2026-04-29 21:11 53.00080 -14.73244 41233 ft 498 kts 90°
2026-04-29 21:12 53.00099 -14.61759 41229 ft 498 kts 89°
2026-04-29 21:12 53.00110 -14.50254 41233 ft 498 kts 90°
2026-04-29 21:13 53.00097 -14.38757 41230 ft 498 kts 90°
2026-04-29 21:13 53.00088 -14.27261 41224 ft 498 kts 90°
2026-04-29 21:14 53.00055 -14.15837 41223 ft 498 kts 90°
2026-04-29 21:14 53.00020 -14.04328 41226 ft 499 kts 90°
2026-04-29 21:15 52.99801 -13.92751 41217 ft 499 kts 93°
2026-04-29 21:15 52.99467 -13.81247 41220 ft 499 kts 92°
2026-04-29 21:16 52.99131 -13.69741 41221 ft 499 kts 93°
2026-04-29 21:16 52.98778 -13.58309 41216 ft 500 kts 93°
2026-04-29 21:17 52.98416 -13.46794 41217 ft 500 kts 93°
2026-04-29 21:17 52.98041 -13.35283 41214 ft 500 kts 93°
2026-04-29 21:18 52.97655 -13.23760 41214 ft 500 kts 93°
2026-04-29 21:18 52.97258 -13.12243 41212 ft 500 kts 94°
2026-04-29 21:19 52.96850 -13.00719 41209 ft 500 kts 94°
2026-04-29 21:19 52.96430 -12.89185 41208 ft 501 kts 94°
2026-04-29 21:20 52.95998 -12.77642 41211 ft 502 kts 94°
2026-04-29 21:20 52.95554 -12.66081 41206 ft 502 kts 94°
2026-04-29 21:21 52.95099 -12.54520 41202 ft 503 kts 94°
2026-04-29 21:21 52.94632 -12.42943 41207 ft 505 kts 94°
2026-04-29 21:21 52.94395 -12.37154 41093 ft 496 kts 94°
2026-04-29 21:22 52.93916 -12.25694 39729 ft 460 kts 95°
2026-04-29 21:22 52.93694 -12.20482 39139 ft 445 kts 95°
2026-04-29 21:22 52.93478 -12.15446 38502 ft 432 kts 95°
2026-04-29 21:23 52.93266 -12.10551 37952 ft 421 kts 95°
2026-04-29 21:23 52.93057 -12.05798 37416 ft 419 kts 95°
2026-04-29 21:23 52.92843 -12.00957 36867 ft 425 kts 95°
2026-04-29 21:23 52.92623 -11.96032 36306 ft 429 kts 96°
2026-04-29 21:24 52.92402 -11.91100 35738 ft 430 kts 96°
2026-04-29 21:24 52.92177 -11.86148 35164 ft 430 kts 96°
2026-04-29 21:24 52.91951 -11.81219 34593 ft 429 kts 96°
2026-04-29 21:24 52.91723 -11.76292 34018 ft 428 kts 97°
2026-04-29 21:25 52.91493 -11.71376 33443 ft 428 kts 97°
2026-04-29 21:25 52.91260 -11.66439 32876 ft 431 kts 97°
2026-04-29 21:25 52.91025 -11.61490 32305 ft 433 kts 97°
2026-04-29 21:25 52.90787 -11.56512 31731 ft 434 kts 97°
2026-04-29 21:26 52.90545 -11.51520 31151 ft 435 kts 97°
2026-04-29 21:26 52.90300 -11.46511 30584 ft 437 kts 98°
2026-04-29 21:26 52.90056 -11.41520 29968 ft 432 kts 98°
2026-04-29 21:26 52.89813 -11.36599 29403 ft 426 kts 98°
2026-04-29 21:27 52.89651 -11.33366 29030 ft 424 kts 98°
2026-04-29 21:27 52.89324 -11.26907 28285 ft 418 kts 98°
2026-04-29 21:27 52.89082 -11.22131 27737 ft 414 kts 98°
2026-04-29 21:27 52.88840 -11.17407 27197 ft 410 kts 99°
2026-04-29 21:28 52.88598 -11.12724 26656 ft 406 kts 99°
2026-04-29 21:28 52.88356 -11.08096 26124 ft 402 kts 99°
2026-04-29 21:28 52.88115 -11.03502 25596 ft 398 kts 99°
2026-04-29 21:28 52.87875 -10.98959 25076 ft 395 kts 99°
2026-04-29 21:29 52.87635 -10.94458 24558 ft 391 kts 99°
2026-04-29 21:29 52.87395 -10.89989 24042 ft 388 kts 99°
2026-04-29 21:29 52.87157 -10.85570 23498 ft 384 kts 99°
2026-04-29 21:29 52.86918 -10.81192 22984 ft 381 kts 99°
2026-04-29 21:30 52.86679 -10.76832 22486 ft 379 kts 99°
2026-04-29 21:30 52.86440 -10.72495 21987 ft 377 kts 99°
2026-04-29 21:30 52.86201 -10.68193 21492 ft 375 kts 99°
2026-04-29 21:30 52.85961 -10.63909 20998 ft 373 kts 99°
2026-04-29 21:31 52.85722 -10.59646 20507 ft 371 kts 99°
2026-04-29 21:31 52.85483 -10.55415 20021 ft 369 kts 99°
2026-04-29 21:31 52.85243 -10.51205 19539 ft 367 kts 99°
2026-04-29 21:31 52.85003 -10.47026 19057 ft 365 kts 99°
2026-04-29 21:32 52.84763 -10.42856 18579 ft 363 kts 99°
2026-04-29 21:32 52.84523 -10.38718 18071 ft 360 kts 99°
2026-04-29 21:32 52.84283 -10.34619 17598 ft 358 kts 98°
2026-04-29 21:32 52.84042 -10.30526 17124 ft 356 kts 98°
2026-04-29 21:33 52.83803 -10.26471 16658 ft 354 kts 98°
2026-04-29 21:33 52.83563 -10.22440 16192 ft 351 kts 98°
2026-04-29 21:33 52.83324 -10.18428 15729 ft 350 kts 98°
2026-04-29 21:33 52.83083 -10.14435 15272 ft 348 kts 98°
2026-04-29 21:34 52.82844 -10.10472 14820 ft 346 kts 97°
2026-04-29 21:34 52.82604 -10.06531 14361 ft 344 kts 97°
2026-04-29 21:34 52.82364 -10.02610 13898 ft 341 kts 97°
2026-04-29 21:34 52.82129 -9.98769 13440 ft 339 kts 97°
2026-04-29 21:35 52.81890 -9.94903 12995 ft 337 kts 97°
2026-04-29 21:35 52.81651 -9.91057 12551 ft 335 kts 97°
2026-04-29 21:35 52.81413 -9.87240 12115 ft 333 kts 97°
2026-04-29 21:35 52.81174 -9.83442 11676 ft 332 kts 97°
2026-04-29 21:36 52.80937 -9.79683 11247 ft 320 kts 97°
2026-04-29 21:36 52.80716 -9.76172 10855 ft 295 kts 97°
2026-04-29 21:36 52.80268 -9.73019 10446 ft 273 kts 113°
2026-04-29 21:36 52.79290 -9.70423 10139 ft 263 kts 127°
2026-04-29 21:37 52.78144 -9.68071 9809 ft 263 kts 128°
2026-04-29 21:37 52.77003 -9.65699 9462 ft 264 kts 127°
2026-04-29 21:37 52.75867 -9.63323 9116 ft 263 kts 127°
2026-04-29 21:37 52.74723 -9.60942 8593 ft 265 kts 128°
2026-04-29 21:38 52.73589 -9.58592 8219 ft 259 kts 128°
2026-04-29 21:38 52.72475 -9.56281 7872 ft 257 kts 127°
2026-04-29 21:38 52.71363 -9.53976 7540 ft 256 kts 127°
2026-04-29 21:38 52.70256 -9.51682 7202 ft 255 kts 127°
2026-04-29 21:39 52.69153 -9.49402 6875 ft 252 kts 127°
2026-04-29 21:39 52.68055 -9.47132 6529 ft 255 kts 127°
2026-04-29 21:39 52.66950 -9.44850 6181 ft 254 kts 127°
2026-04-29 21:39 52.65849 -9.42578 5850 ft 253 kts 127°
2026-04-29 21:40 52.64763 -9.40343 5532 ft 246 kts 127°
2026-04-29 21:40 52.63688 -9.38128 5210 ft 250 kts 127°
2026-04-29 21:40 52.62603 -9.35893 4879 ft 250 kts 127°
2026-04-29 21:40 52.61527 -9.33683 4547 ft 239 kts 127°
2026-04-29 21:41 52.60551 -9.31688 4236 ft 210 kts 127°
2026-04-29 21:41 52.59674 -9.29885 3986 ft 197 kts 127°
2026-04-29 21:41 52.58825 -9.28137 3746 ft 195 kts 127°
2026-04-29 21:41 52.57977 -9.26398 3494 ft 195 kts 127°
2026-04-29 21:42 52.57196 -9.24629 3199 ft 181 kts 116°
2026-04-29 21:42 52.56888 -9.22617 2993 ft 187 kts 96°
2026-04-29 21:42 52.56967 -9.21222 2986 ft 187 kts 82°
2026-04-29 21:42 52.57817 -9.18726 2994 ft 171 kts 60°
2026-04-29 21:43 52.58511 -9.17259 3004 ft 154 kts 61°
2026-04-29 21:43 52.59096 -9.16037 2984 ft 119 kts 62°
2026-04-29 21:43 52.59546 -9.15070 2992 ft 99 kts 64°
2026-04-29 21:43 52.59964 -9.14178 2996 ft 101 kts 64°
2026-04-29 21:44 52.60405 -9.13242 2966 ft 104 kts 64°
2026-04-29 21:44 52.60701 -9.12612 2879 ft 106 kts 64°
2026-04-29 21:44 52.61147 -9.11673 2745 ft 103 kts 64°
2026-04-29 21:44 52.61588 -9.10764 2604 ft 101 kts 63°
2026-04-29 21:45 52.62026 -9.09870 2465 ft 100 kts 63°
2026-04-29 21:45 52.62607 -9.08697 2243 ft 99 kts 63°
2026-04-29 21:45 52.63042 -9.07837 2094 ft 97 kts 62°
2026-04-29 21:45 52.63335 -9.07264 1991 ft 97 kts 62°
2026-04-29 21:46 52.63785 -9.06440 1841 ft 97 kts 57°
2026-04-29 21:46 52.64242 -9.05660 1729 ft 94 kts 58°
2026-04-29 21:46 52.64667 -9.04862 1629 ft 93 kts 60°
2026-04-29 21:46 52.65068 -9.04012 1503 ft 95 kts 61°
2026-04-29 21:47 52.65453 -9.03128 1447 ft 95 kts 62°
2026-04-29 21:47 52.65850 -9.02232 1379 ft 96 kts 62°
2026-04-29 21:47 52.66246 -9.01332 1306 ft 99 kts 62°
2026-04-29 21:47 52.66635 -9.00392 1180 ft 102 kts 62°
2026-04-29 21:48 52.67019 -8.99401 998 ft 103 kts 62°
2026-04-29 21:48 52.67424 -8.98399 806 ft 106 kts 56°
2026-04-29 21:48 52.67868 -8.97400 577 ft 109 kts 51°
2026-04-29 21:48 52.68332 -8.96420 399 ft 108 kts 48°
2026-04-29 21:49 52.68806 -8.95438 230 ft 111 kts 47°
2026-04-29 21:49 52.69279 -8.94439 85 ft 111 kts 49°
2026-04-29 21:49 52.69726 -8.93492 36 ft 100 kts 49°
2026-04-29 21:49 52.70032 -8.92844 33 ft 55 kts 53°
2026-04-29 21:50 52.70264 -8.92362 30 ft 51 kts 51°
2026-04-29 21:50 52.70476 -8.91916 27 ft 48 kts 54°
2026-04-29 21:50 52.70653 -8.91511 21 ft 35 kts 57°
2026-04-29 21:50 52.70768 -8.91232 23 ft 19 kts 88°
2026-04-29 21:51 52.70699 -8.91154 20 ft 12 kts 169°
2026-04-29 21:51 52.70616 -8.91128 20 ft 12 kts 169°
2026-04-29 21:51 52.70451 -8.91075 19 ft 12 kts 170°
2026-04-29 21:52 52.70368 -8.91051 19 ft 12 kts 170°
2026-04-29 21:52 52.70282 -8.91024 21 ft 13 kts 169°
2026-04-29 21:52 52.70195 -8.91011 21 ft 12 kts 192°
2026-04-29 21:52 52.70107 -8.91059 19 ft 15 kts 199°
2026-04-29 21:53 52.70006 -8.91113 19 ft 15 kts 198°
2026-04-29 21:53 52.69905 -8.91169 19 ft 17 kts 199°
2026-04-29 21:53 52.69776 -8.91242 20 ft 21 kts 198°
2026-04-29 21:53 52.69648 -8.91271 20 ft 19 kts 141°
2026-04-29 21:54 52.69565 -8.91076 19 ft 21 kts 126°
2026-04-29 21:54 52.69481 -8.90884 19 ft 21 kts 126°
2026-04-29 21:54 52.69398 -8.90684 19 ft 21 kts 124°
2026-04-29 21:54 52.69341 -8.90497 19 ft 17 kts 69°
2026-04-29 21:55 52.69448 -8.90365 19 ft 20 kts 35°
2026-04-29 21:55 52.69545 -8.90362 19 ft 15 kts 317°
2026-04-29 21:55 52.69603 -8.90405 19 ft 4 kts 34°
2026-04-29 21:55 52.69610 -8.90387 19 ft 0 kts 61°